Regional Weather Roundup
Issued by NWS

Current Version | Previous Version | Text Only | Print | Product List | Glossary On
Versions: 1 2 3 4 5 6 7 8 9 10 11 12 13 14 15 16 17 18 19 20 21 22 23 24 25 26 27 28 29 30 31 32 33 34 35 36 37 38 39 40 41 42 43 44 45 46 47 48 49 50
000
ASUS45 KPSR 010710
RWRAZ

ARIZONA HOURLY REGIONAL WEATHER ROUNDUP
NATIONAL WEATHER SERVICE PHOENIX AZ
1200 AM MST MON MAR 01 2021

NOTE: FAIR INDICATES FEW OR NO CLOUDS BELOW 12,000 FEET WITH NO
SIGNIFICANT WEATHER AND/OR OBSTRUCTIONS TO VISIBILITY.

AZZ001>003-036-010800-
NORTHWEST ARIZONA

CITY           SKY/WX    TMP DP  RH WIND       PRES   REMARKS
BULLHEAD CITY  CLEAR     52   3  14 N7        30.29F
KINGMAN        CLEAR     34   1  24 E12       30.29S WCI  25
$$

AZZ004>008-015-016-018-010800-
NORTH CENTRAL ARIZONA

CITY           SKY/WX    TMP DP  RH WIND       PRES   REMARKS
GRAND CANYON   CLEAR      8  -4  58 SW3       30.27F
WILLIAMS       CLEAR     27 -13  17 VRB7G13   30.23F WCI  19
PRESCOTT       CLEAR     27  -6  23 W6        30.25S WCI  20
FLAGSTAFF      CLEAR     24  -8  24 NE25G33   30.20R WCI   8
PAYSON         CLEAR     36 -17  10 E8G22     30.22S WCI  29
PAGE           CLEAR     32  -9  16 SW3       30.31R
$$

AZZ009>014-017-010800-
NORTHEAST ARIZONA

CITY           SKY/WX    TMP DP  RH WIND       PRES   REMARKS
WINSLOW        CLEAR     25 -12  19 NE6       30.30S WCI  18
SAINT JOHNS    CLEAR     19  -5  34 SW3       30.25R
WINDOW ROCK    CLEAR     21  -2  36 N8        30.24R WCI  11
SHOW LOW       CLEAR     18  -9  29 CALM      30.27R
$$

AZZ540-542>544-546-548-010800-
GREATER PHOENIX AREA

CITY           SKY/WX    TMP DP  RH WIND       PRES   REMARKS
PHOENIX        CLEAR     53  -6   8 N8        30.21S
BUCKEYE          N/A     46  -9   9 N6        30.24S
LUKE AFB       CLEAR     44   8  22 N10       30.22S
DEER VALLEY    CLEAR     51  -6   9 N12       30.23S
SCOTTSDALE     CLEAR     47   0  14 NW3       30.24S
MESA-FALCON    CLEAR     48  -5  11 CALM      30.22S
MESA-GATEWAY   CLEAR     45  -4  13 N9        30.23S
$$

AZZ539-553-010800-
SOUTHWEST MARICOPA COUNTY AND PINAL COUNTY

CITY           SKY/WX    TMP DP  RH WIND       PRES   REMARKS
CASA GRANDE      N/A     44  -4  13 N10       30.23R
GILA BEND      FAIR      49 -13   7 N3        30.21S
$$

AZZ503-504-507>509-010800-
SOUTHEAST ARIZONA

CITY           SKY/WX    TMP DP  RH WIND       PRES   REMARKS
TUCSON         CLEAR     45  -7  11 N8        30.19S
DAVIS-MONTHAN  CLEAR     40  -6  13 S6        30.17S
NOGALES        CLEAR     36  -3  19 N7        30.15F WCI  30
SIERRA VISTA   CLEAR     34 -10  14 N8        30.18S WCI  28
SAFFORD        CLEAR     43  -5  13 VRB6      30.16R
$$

AZZ532-010800-
SOUTHWEST ARIZONA

CITY           SKY/WX    TMP DP  RH WIND       PRES   REMARKS
YUMA           CLEAR     49   9  19 CALM      30.25S
$$

CAZ041-043-047-048-061-525>527-560>570-010800-
SOUTHERN CALIFORNIA

CITY           SKY/WX    TMP DP  RH WIND       PRES   REMARKS
DOWNTOWN L.A.  CLEAR     56  24  29 CALM      30.19R
L.A. AIRPORT   CLEAR     58  18  21 NE5       30.19S
SAN DIEGO      CLEAR     53  42  66 CALM      30.20S
BURBANK        CLEAR     53  14  21 SW3       30.19S
ONTARIO        CLEAR     49  12  22 NW5       30.20R
RIVERSIDE      CLEAR     50  11  20 E6        30.22S
PALM SPRINGS   CLEAR     54   7  15 W5        30.30S
EL CENTRO NAS  CLEAR     44   7  21 W10       30.28S
IMPERIAL       CLEAR     43  16  33 SW7       30.27R
BLYTHE         CLEAR     52   0  12 N10       30.27S
NEEDLES        CLEAR     50  -1  12 W8        30.29F
$$

NVZ020-UTZ003-010800-
SOUTHERN NEVADA-UTAH

CITY           SKY/WX    TMP DP  RH WIND       PRES   REMARKS
LAS VEGAS      CLEAR     43  -1  16 S5        30.31S
SALT LAKE CITY PTCLDY    27  12  53 SE6       30.41R WCI  20
$$

NMZ009-TXZ055-010800-
NEW MEXICO-WEST TEXAS

CITY           SKY/WX    TMP DP  RH WIND       PRES   REMARKS
ALBUQUERQUE    PTCLDY    33  10  38 CALM      30.23R
EL PASO        PTCLDY    46  -8  10 N5        30.04R
$$


........................KEY........................
SKY/WX - SKY CONDITION/WEATHER
TMP    - TEMPERATURE IN FAHRENHEIT
DP     - DEW POINT IN FAHRENHEIT
RH     - RELATIVE HUMIDITY IN PERCENT
WIND   - DIRECTION AND SPEED IN MILES PER HOUR (MPH)
VRB    - VARIABLE WIND DIRECTION
PRES   - MEAN SEA LEVEL PRESSURE IN INCHES OF MERCURY
         F - FALLING PRESSURE   R - RISING PRESSURE
         S - STEADY PRESSURE
VSB    - VISIBILITY IN MILES
HX     - HEAT INDEX IN FAHRENHEIT
WCI    - WIND CHILL INDEX IN FAHRENHEIT
TC     - TEMPERATURE IN CELSIUS WHICH IS ALSO KNOWN AS
         TEMPERATURE IN CENTIGRADE
AFB    - AIR FORCE BASE
         LUKE AFB IS LUKE AIR FORCE BASE
         DAVIS-MONTHAN IS DAVIS-MONTHAN AIR FORCE BASE
NAS    - NAVAL AIR STATION
         EL CENTRO NAS IS EL CENTRO NAVAL AIR STATION
N/A    - NOT AVAILABLE




USA.gov is the U.S. government's official web portal to all federal, state and local government web resources and services.